This is the latest recevied weather packets stored in our database for station/object N4HAC. If no packets are shown the sender has not sent any weather packets the latest 10 day(s).
| Time | Temp. | Humidity | Pressure | Rain* | Wind** | Luminosity | Snow |
|---|---|---|---|---|---|---|---|
| 1777838894 | 15.56° C | 32% | 1009.4 hPa | 0 mm | - | 428 W/m² | - |
| 1777838589 | 15.56° C | 34% | 1009.5 hPa | 0 mm | - | 476 W/m² | - |
| 1777838287 | 16.11° C | 33% | 1009.4 hPa | 0 mm | - | 520 W/m² | - |
| 1777837983 | 16.11° C | 31% | 1009.6 hPa | 0 mm | - | 562 W/m² | - |
| 1777837680 | 16.11° C | 34% | 1009.6 hPa | 0 mm | - | 607 W/m² | - |
| 1777837376 | 15.56° C | 33% | 1009.7 hPa | 0 mm | - | 630 W/m² | - |
| 1777837073 | 15° C | 32% | 1010 hPa | 0 mm | - | 657 W/m² | - |
| 1777836769 | 16.11° C | 33% | 1010 hPa | 0 mm | - | 711 W/m² | - |
| 1777836465 | 15° C | 33% | 1010 hPa | 0 mm | - | 719 W/m² | - |
| 1777836160 | 14.44° C | 32% | 1010.1 hPa | 0 mm | - | 776 W/m² | - |
| 1777835857 | 14.44° C | 34% | 1010.3 hPa | 0 mm | - | 216 W/m² | - |
| 1777835554 | 13.89° C | 33% | 1010.5 hPa | 0 mm | - | 221 W/m² | - |
| 1777835251 | 14.44° C | 34% | 1010.6 hPa | 0 mm | - | 136 W/m² | - |
| 1777834947 | 15° C | 39% | 1010.6 hPa | 0 mm | - | 811 W/m² | - |
| 1777834645 | 14.44° C | 36% | 1010.6 hPa | 0 mm | - | 847 W/m² | - |
| 1777834340 | 14.44° C | 38% | 1010.4 hPa | 0 mm | - | 833 W/m² | - |
| 1777834035 | 14.44° C | 37% | 1010.6 hPa | 0 mm | - | 862 W/m² | - |
| 1777833731 | 14.44° C | 34% | 1010.8 hPa | 0 mm | - | 696 W/m² | - |
| 1777833428 | 14.44° C | 36% | 1010.8 hPa | 0 mm | - | 839 W/m² | - |
| 1777833125 | 14.44° C | 38% | 1010.7 hPa | 0 mm | - | 871 W/m² | - |
| 1777832823 | 14.44° C | 35% | 1010.7 hPa | 0 mm | - | 880 W/m² | - |
| 1777832522 | 13.89° C | 35% | 1010.8 hPa | 0 mm | - | 942 W/m² | - |
| 1777832218 | 14.44° C | 34% | 1010.8 hPa | 0 mm | - | 257 W/m² | - |
| 1777831915 | 13.33° C | 36% | 1010.8 hPa | 0 mm | - | 878 W/m² | - |
| 1777831611 | 14.44° C | 41% | 1010.8 hPa | 0 mm | - | 587 W/m² | - |
* Rain latest hour (hover to see other rain measurements)
** Current wind speed in m/s (hover to see current wind gust speed)